GFSSW_850_dewp_138.txt.gz
Dewpoint
5 5 5 5 4 3 2 0 -2 -1 2 2 3 3 2 2 -5 -9 -4 -4 -1 2 3 5 9 10 7 6 6 6 6 4 1 0 0 -0 0 -2 -4 -6 -6 -5 -1 3 7
6 6 6 6 6 5 4 3 1 -3 -1 2 2 2 2 1 -6 -2 -9 7 6 6 7 4 6 8 9 6 5 6 6 4 0 -2 -1 -0 0 -2 -2 -6 -5 -4 3 5 8
7 7 7 7 7 6 5 4 3 1 2 2 2 2 1 -2 -1 -0 5 5 6 5 6 5 6 6 8 8 5 5 7 4 2 0 0 -0 -0 -1 -3 -1 -3 -3 6 6 8
7 7 8 8 7 7 7 6 4 2 2 2 2 2 1 2 -1 5 7 4 2 5 6 4 4 5 7 8 8 6 4 4 4 3 3 0 -1 1 -1 -2 -1 -2 2 5 8
8 8 8 8 7 7 7 6 5 3 -0 -1 2 2 1 0 -1 -5 -4 -4 -1 2 4 5 5 5 4 4 6 8 6 3 3 3 3 2 0 1 1 -2 -2 -0 3 5 8
8 8 8 8 7 7 7 6 5 3 -1 -4 1 1 2 0 -3 -3 -3 -2 -1 -2 -1 1 5 5 6 3 4 5 7 6 2 2 1 1 0 -0 1 0 -1 -0 1 7 8
8 9 9 8 8 8 6 5 4 4 -1 -2 1 2 1 0 -4 -4 -3 -3 -2 -3 -3 -1 -1 2 5 7 3 3 5 5 5 2 2 1 2 1 -0 0 -1 1 3 8 8
8 8 9 9 9 9 7 5 4 3 -2 -5 1 2 0 -5 -3 -2 -3 -2 -2 -2 -3 -3 -3 0 2 7 7 6 5 8 5 5 2 2 5 1 -0 -0 -1 -0 0 3 7
9 9 8 8 8 8 7 5 4 2 -3 -4 0 0 -0 -2 -3 -3 -3 -1 -2 -1 -1 -2 -3 -1 2 7 8 7 8 7 6 3 4 2 4 2 0 -0 -1 -2 -0 -1 4
8 8 8 8 8 8 7 4 3 0 -2 -3 -1 -1 -0 -1 -3 -5 -4 -1 -2 -2 -3 -3 -1 1 4 7 7 6 8 6 5 2 3 3 3 2 0 -1 -1 -2 0 1 1
8 7 8 7 7 8 6 3 1 -1 -3 -4 -3 -1 -2 -2 -7 -8 -10 -11 -9 -3 -3 -4 1 3 2 5 5 4 5 4 1 1 1 3 2 2 1 -0 -1 -2 -2 1 1
8 7 7 6 7 7 5 2 0 -2 -2 -3 -6 -6 -6 -8 -10 -9 -5 -7 -12 -10 -10 -7 -2 -2 -3 -2 3 5 6 6 4 2 0 0 0 1 1 0 -1 -2 -3 -1 1
5 5 5 6 6 5 3 1 -0 -1 -1 -3 -7 -9 -9 -6 -8 -5 -4 -5 -7 -6 -8 -8 -7 -8 -5 -4 -2 1 6 6 6 4 2 0 1 2 1 0 -1 -1 -3 -3 0
4 5 5 6 5 2 1 -0 -0 -1 0 -3 -10 -6 -4 -3 -4 -4 -4 -4 -4 -3 -4 -4 -7 -9 -10 -8 -4 0 -2 1 3 5 7 3 8 5 3 2 0 -1 -3 -4 0
4 5 6 6 5 2 1 -0 -0 -0 4 -9 -6 -4 -5 -5 -10 -9 -7 -8 -4 -5 -8 -5 -6 -4 -3 -9 -9 -3 -3 -1 1 4 5 5 8 8 3 3 0 -0 -2 -4 -4
5 5 5 5 2 1 -0 -0 -1 1 3 -10 -4 -3 -5 -11 -13 -14 -15 -9 -10 -10 -7 -6 -8 -8 -7 -6 -5 -7 -6 -2 1 4 8 5 7 7 4 2 0 -2 -2 -4 -5
5 5 5 3 -0 -0 0 -1 2 3 -7 -4 -10 -8 -11 -12 -13 -13 -11 -10 -7 -4 -4 -7 -9 -10 -8 -6 -7 -3 2 4 5 6 8 5 6 5 1 -1 -1 -2 -3 -3 -5
5 5 3 2 -0 -0 -0 1 3 1 -2 -3 -9 -11 -10 -11 -11 -10 -9 -8 -11 -11 -7 -5 -4 -9 -10 -8 -1 -3 0 5 4 4 3 -0 7 5 2 1 -3 -2 -2 -3 -4
4 2 0 -0 0 -0 0 2 3 -1 0 -4 -9 -8 -9 -9 -6 -7 -7 -9 -10 -8 -3 -0 -3 -8 -8 -8 -3 1 0 0 3 3 7 7 6 3 -0 -0 -1 -3 -3 -3 -3
4 1 -1 -0 -0 -1 1 2 0 -1 -1 -5 -5 -8 -6 -8 -6 -3 -5 -10 -9 -9 -2 -1 -0 -6 -8 -7 -3 -1 -3 3 4 5 6 4 5 5 2 0 -1 -2 -3 -2 -4
2 -1 -1 -1 -1 -1 1 1 -3 -2 -1 -3 -6 -5 -8 -6 -5 -5 -4 -6 -6 -5 -5 1 0 -2 -4 -3 1 3 0 1 6 4 3 5 4 -1 1 -0 -1 -2 -3 -3 -3
1 -1 -1 -1 -0 -1 0 -1 -3 -2 -1 -3 -6 -7 -7 -9 -4 -4 -4 -5 -8 -6 -4 -3 -1 -0 -1 -5 -2 1 5 5 5 3 5 6 4 -2 -0 -2 -1 -2 -2 -2 -2
0 -2 -2 -1 0 0 -1 -2 -3 -2 -2 -2 -6 -8 -9 -8 -4 -3 -4 -8 -7 -4 -3 -4 -1 0 -5 0 -3 2 1 1 3 4 3 5 3 1 2 1 -0 -1 -1 -1 -1
1 -1 -2 -2 -1 -0 0 -1 -1 -4 -2 -2 -3 -7 -7 -6 -7 -3 -3 -7 -8 -7 -8 -4 -1 -2 -3 -3 -1 0 -1 -0 3 4 4 4 2 1 4 2 -1 -2 -2 -1 -1
0 -0 -2 -1 -2 -1 -1 0 -0 -0 -2 -1 -1 -3 -5 -4 -5 -4 -6 -8 -7 -8 -5 -4 -3 -4 -5 -7 -7 -5 -2 -0 2 2 3 3 3 -1 1 1 3 -2 -3 -2 -2
1 -0 -1 -0 -1 -1 -1 -1 -0 -0 -2 -2 -1 -6 -6 -4 -4 -4 -7 -7 -5 -6 -4 -3 -3 -4 -4 -9 -12 -8 -8 -4 1 1 1 2 3 0 0 3 0 -3 -4 -3 -4
1 1 -0 -0 1 0 -1 -2 -2 -1 -1 -5 -3 -4 -6 -7 -8 -9 -9 -8 -8 -5 -4 -3 -3 -3 -4 -10 -8 -5 -3 -3 -6 -2 1 3 2 2 2 3 3 -3 -4 -4 -4

GFSSW_850_dewp_144.txt.gz
Dewpoint
7 7 7 7 7 7 7 7 8 8 8 8 7 6 6 5 5 2 0 -2 -3 3 7 7 2 3 5 7 9 7 8 9 7 3 1 -2 -2 -2 -2 -1 -1 -6 -4 -3 9
8 8 8 8 8 7 7 8 8 8 8 8 7 6 6 5 4 3 0 1 3 5 6 5 6 4 5 7 8 9 9 7 4 4 1 -1 -1 -1 -1 -1 -1 -4 -3 1 8
9 8 8 8 8 8 8 8 8 8 8 8 7 6 5 5 3 0 2 3 3 3 4 5 6 6 4 6 8 8 9 5 5 4 3 2 0 -0 0 1 -0 -2 -1 7 9
8 8 8 8 8 9 9 9 9 9 8 9 7 6 5 4 4 1 3 5 5 -0 1 5 6 7 5 6 6 9 7 6 6 5 5 4 3 2 2 1 1 2 2 6 10
8 8 8 8 8 8 9 8 8 8 8 8 7 6 5 2 4 4 2 5 4 -2 -1 3 3 6 6 4 4 6 6 7 7 6 6 5 5 5 4 3 3 3 2 8 9
8 8 8 8 9 8 8 8 8 8 8 8 8 6 4 2 4 2 1 -4 -4 -2 -1 -1 1 2 0 2 4 3 4 4 5 7 5 5 5 4 3 3 3 2 1 8 9
8 8 9 9 8 7 9 8 8 8 8 8 7 6 3 4 3 3 3 1 -3 -3 -2 -1 -2 -3 -1 3 4 4 6 5 5 4 6 6 7 7 4 3 2 1 0 5 8
8 8 7 7 6 6 8 7 6 7 6 8 6 5 2 3 2 -0 -2 -3 -3 -3 -3 -3 -3 -3 -3 -1 1 5 6 7 3 3 3 5 8 5 5 3 2 1 0 1 6
5 2 2 2 4 4 5 5 5 6 7 7 5 3 2 2 -1 -2 -2 -2 -2 -1 -2 -2 -2 -2 -1 1 4 4 7 7 6 1 2 5 6 3 3 2 2 1 1 0 0
-2 -0 2 5 5 5 5 4 6 6 5 5 3 2 2 1 0 -2 -3 -7 -5 -2 -4 -3 -2 -0 0 3 4 3 4 3 5 5 4 3 4 3 3 3 2 1 1 0 -0
-3 -0 3 5 5 4 5 6 5 4 4 4 2 1 0 2 2 0 -4 -5 -5 -9 -9 -4 -1 3 1 -0 -0 2 3 6 5 3 4 7 7 4 1 3 2 1 1 1 -0
-4 -3 3 4 4 4 4 5 5 3 2 2 3 1 -0 0 1 -2 -7 -7 -8 -6 -9 -7 -2 -4 -3 -0 1 1 2 3 1 -0 2 5 5 4 1 1 1 1 1 1 1
-5 -4 4 4 5 4 3 4 4 3 2 1 0 0 1 -1 -1 -7 -8 -9 -6 -7 -9 -7 -7 -9 -7 -6 -2 1 2 2 2 1 0 2 3 1 1 0 0 0 1 1 0
-7 -3 4 5 5 4 4 3 3 2 4 0 -5 -6 -5 -6 -6 -6 -5 -4 -3 -4 -5 -8 -11 -8 -8 -6 -7 -3 -7 -6 -4 -1 5 0 3 1 -2 -1 -0 -1 -0 1 0
-3 0 3 4 4 4 3 2 1 1 1 -4 -6 -6 -4 -3 -4 -9 -6 -4 -4 -5 -6 -4 -8 -9 -6 -7 -7 -5 -5 -6 -5 -1 -0 -0 4 1 1 2 1 0 -0 -0 0
-0 2 4 4 4 4 2 1 1 -2 -2 -4 -3 -1 -1 -4 -6 -11 -8 -5 -6 -5 -5 -6 -11 -9 -8 -8 -8 -9 -6 -4 -3 -2 2 1 1 1 -0 -1 -2 -0 -0 -0 -0
1 2 2 3 4 2 1 0 -1 -2 -1 -1 -4 -5 -4 -7 -11 -12 -9 -8 -8 -5 -6 -8 -9 -11 -10 -9 -8 -7 -2 -2 -2 2 0 -4 -0 -2 -2 -5 -5 -3 -2 -0 0
-1 1 2 3 2 1 1 -2 -2 -1 -1 -1 -0 -1 -2 -9 -8 -8 -8 -8 -9 -9 -5 -6 -7 -10 -7 -7 -6 -6 -3 -0 1 -3 0 -1 0 -3 -5 -6 -6 -3 -4 -3 -2
1 2 1 1 1 1 -0 -3 -2 -0 -0 0 -1 -0 -6 -6 -6 -7 -7 -7 -7 -4 -7 -6 -4 -6 -7 -7 -7 -4 -1 -3 0 -0 0 -2 -5 -9 -12 -8 -3 -5 -5 -3 -2
1 0 0 0 0 0 -3 -1 -0 -1 -1 -1 1 -0 -1 -7 -6 -7 -6 -8 -4 -4 -4 -2 -5 -6 -6 -9 -7 -5 -3 0 1 1 1 0 -2 -6 -5 -3 -4 -5 -3 -3 -2
2 0 -0 -1 -0 -1 -4 -4 -1 -1 -2 -1 -1 -0 -4 -4 -6 -6 -7 -7 -6 -4 -4 -3 -5 -5 -7 -6 -4 -3 -1 -1 1 2 1 0 -4 -9 -8 -10 -3 -2 0 0 0
2 1 -1 -1 -1 -3 -2 -2 -3 -2 -1 -1 -1 -2 -2 -6 -5 -4 -5 -7 -5 -6 -4 -4 -4 -2 -5 -7 -6 -8 -3 -1 0 -2 -1 1 -3 -2 -2 0 1 0 2 0 -1
1 -1 -1 -1 -1 -2 -4 -2 -3 -2 -2 -2 -2 -3 -4 -5 -4 -6 -6 -7 -6 -3 -3 -5 -5 -5 -8 -8 -9 -5 -6 -1 -1 -0 -0 2 1 -3 -5 -4 1 2 1 2 2
1 -1 -2 -2 -2 -1 -1 -1 -1 -3 -2 -3 -2 -2 -2 -3 -6 -6 -4 -4 -4 -3 -4 -5 -4 -7 -7 -9 -9 -6 -4 -5 -3 -1 -2 -2 -1 -6 -5 1 1 2 3 3 2
1 0 -1 -2 -2 -2 -2 -2 -0 -0 -1 -2 -1 -1 -2 -1 -4 -4 -6 -5 -6 -6 -4 -4 -4 -4 -5 -5 -5 -5 -5 -5 -3 -3 -2 -4 -6 -7 -0 -0 0 2 0 1 1
-0 0 -1 -1 -2 -2 -1 -2 -2 -2 0 -1 -1 -3 -2 -2 -4 -5 -5 -5 -6 -7 -5 -7 -6 -4 -3 -6 -7 -7 -8 -8 -7 -2 -0 -3 -5 -3 -3 -4 -2 1 -0 -1 -1
-0 -1 -0 -2 -0 -1 -3 -3 -1 -0 -1 -3 -2 -2 -2 -2 -4 -4 -6 -6 -8 -7 -7 -6 -5 -5 -4 -7 -7 -6 -5 -2 -1 -2 -1 -1 -2 -4 -4 -4 -1 -1 -1 -1 -1

GFSSW_850_dewp_147.txt.gz
Dewpoint
8 8 9 8 8 8 8 8 8 9 9 8 8 8 8 7 6 6 5 4 -2 0 2 5 5 4 5 5 7 9 9 8 8 6 3 -1 -1 -2 -2 -2 -2 -3 -4 3 4
9 9 8 8 8 8 8 9 9 9 9 9 9 8 7 6 6 5 4 0 2 3 6 6 5 5 7 5 6 8 9 7 4 4 3 1 -1 -1 -1 -1 -2 -2 -2 0 8
9 8 8 8 8 8 8 8 9 9 9 9 9 9 7 6 5 4 -0 2 5 4 4 4 4 4 6 5 7 7 8 4 4 4 4 4 2 2 0 1 -0 -1 0 6 10
8 8 9 8 8 8 9 9 8 8 8 8 8 9 8 6 7 3 3 5 5 6 3 0 5 5 4 5 4 8 6 6 6 5 6 5 3 3 3 1 0 -0 3 4 12
8 8 8 8 8 8 9 8 7 8 9 7 7 8 8 5 5 5 5 5 5 7 2 -1 4 6 6 4 3 6 5 5 6 7 6 6 6 5 5 4 3 3 3 4 7
8 8 8 8 7 5 6 5 6 7 7 7 7 8 7 4 6 5 4 -1 2 -2 -2 -2 -1 1 -0 1 3 3 4 4 4 4 5 7 6 5 5 5 4 3 3 2 4
5 4 2 -1 -1 1 2 3 4 5 5 4 5 8 5 6 6 5 3 4 2 2 0 -2 -1 -2 -2 0 1 1 4 3 3 3 5 4 7 7 5 4 4 3 3 1 3
-1 -2 -3 -3 1 3 4 4 4 3 3 5 6 7 5 5 5 5 1 -2 -3 -3 -2 -3 -3 -3 -3 -3 -1 3 4 6 2 2 3 5 7 4 5 5 5 4 3 3 2
-3 -4 -5 -4 1 4 4 4 4 4 4 5 6 6 4 4 1 0 -2 -2 -2 -1 -3 -2 -2 -2 -2 1 3 3 5 4 3 3 2 5 6 3 4 3 5 5 3 2 1
-4 -5 -5 -5 2 4 4 3 5 5 5 5 5 4 3 2 1 -2 -1 -3 -7 -5 0 1 2 0 1 2 3 1 3 2 3 2 4 6 4 2 1 3 3 3 2 2 2
-8 -8 -6 -2 4 3 3 4 5 4 5 4 3 2 2 2 2 2 2 -0 -2 -6 -1 -2 -1 3 2 1 1 1 1 2 1 -1 1 5 5 5 4 4 2 3 3 1 1
-9 -4 -4 5 4 2 3 5 4 3 2 2 1 3 2 1 1 -5 -7 -1 -5 -3 -7 -7 -4 -5 -4 1 2 2 2 2 1 -1 1 3 2 0 2 4 3 2 2 2 1
-4 -3 0 4 4 2 3 3 4 3 3 2 -4 -1 -3 -3 -1 -5 -7 -8 -7 -6 -7 -7 -7 -9 -6 -4 -2 3 4 3 2 -2 -4 0 2 0 -2 -1 1 2 1 0 1
-5 -3 1 3 3 2 3 3 2 2 3 -1 -7 -5 -5 -5 -5 -5 -6 -5 -4 -4 -5 -9 -11 -9 -8 -6 -7 -4 -6 -5 -4 1 3 1 3 -2 -2 -3 -2 -2 -2 -1 -1
-4 -0 1 2 3 3 3 2 1 1 -1 -5 -6 -6 -2 -4 -4 -9 -6 -5 -3 -6 -6 -6 -7 -9 -8 -8 -7 -5 -6 -8 -7 -3 0 -0 3 1 -2 -2 -3 -1 -2 -2 -2
-2 -1 2 2 3 2 1 1 1 -3 -2 -3 -3 -2 -2 -3 -3 -6 -8 -6 -5 -4 -5 -5 -8 -9 -9 -9 -8 -8 -7 -4 -3 -2 1 -3 -0 -0 -3 -2 -3 -5 -4 -3 -2
-2 -2 2 2 2 1 1 1 -2 -2 -3 -1 -3 -3 -2 -4 -9 -12 -9 -8 -7 -7 -6 -7 -9 -12 -9 -9 -7 -7 -4 -5 -3 0 -2 -2 -2 -3 -7 -7 -6 -6 -6 -5 -4
-0 -1 0 -0 1 1 1 -3 -4 -3 -0 -1 -0 -1 -1 -6 -8 -8 -8 -8 -10 -8 -5 -6 -7 -9 -7 -8 -7 -6 -5 -5 -2 -3 -1 -6 -2 -3 -6 -7 -8 -7 -6 -6 -5
0 0 -0 -1 0 0 -1 -3 -3 -2 -1 0 -1 -1 -5 -6 -5 -7 -7 -7 -7 -6 -7 -6 -4 -7 -7 -8 -8 -8 -1 -4 -2 -3 -1 -2 -5 -9 -12 -14 -15 -8 -9 -6 -6
2 1 -0 -1 -0 -1 -3 -1 -1 -1 -1 -2 0 -1 -1 -6 -6 -7 -7 -8 -5 -4 -5 -4 -5 -7 -6 -8 -7 -7 -5 -4 -3 -3 0 -2 -3 -5 -8 -9 -5 1 1 0 -1
2 1 -0 -0 -1 -1 -4 -4 -2 -2 -2 -1 -1 -1 -1 -4 -6 -6 -7 -8 -7 -4 -5 -4 -6 -6 -7 -7 -5 -5 -2 -4 -3 -2 0 1 -3 -4 -3 -1 0 1 2 1 1
1 1 -0 -1 -1 -3 -2 -3 -2 -2 -1 -1 -1 -2 -2 -5 -5 -5 -4 -7 -6 -6 -4 -5 -6 -3 -5 -7 -7 -8 -7 -6 -1 -5 -4 -2 -3 -4 -8 -6 -1 0 2 2 2
1 -0 -1 -1 -2 -2 -3 -3 -2 -2 -2 -1 -2 -2 -3 -3 -2 -5 -6 -8 -6 -5 -4 -4 -7 -7 -7 -9 -10 -7 -4 -4 -3 -2 -2 -1 -2 -6 -8 -3 -2 -2 1 -0 -1
-0 0 -2 -2 -2 -1 -1 -2 -2 -3 -2 -2 -2 -2 -2 -1 -3 -5 -5 -5 -5 -4 -5 -5 -4 -7 -6 -11 -11 -8 -9 -5 -4 -2 -4 -4 -5 -8 -3 -2 -4 -4 0 -1 -1
-0 -0 -2 -4 -3 -2 -1 -3 -1 -1 -1 -2 -1 -1 -1 -1 -2 -3 -5 -5 -6 -6 -4 -3 -2 -4 -5 -6 -6 -5 -6 -6 -5 -5 -2 -6 -6 -5 -3 -4 -5 -2 -1 -1 -2
-1 -1 -1 -1 -2 -2 -3 -2 -2 -3 -0 -1 -1 -3 -2 -1 -3 -4 -5 -5 -5 -7 -3 -7 -3 -4 -3 -6 -5 -4 -6 -7 -7 -6 -7 -1 -2 -5 -6 -6 -5 -2 -2 -2 -2
-0 -1 -1 -1 -0 -1 -4 -3 -3 -2 -2 -2 -2 -1 -1 -2 -4 -5 -7 -6 -6 -7 -6 -6 -4 -5 -4 -7 -7 -8 -8 -5 -1 -1 -1 -2 -3 -4 -5 -5 -1 -3 -3 -2 -2

GFSSW_850_dewp_153.txt.gz
Dewpoint
8 8 8 8 8 8 8 8 9 9 9 9 9 8 8 9 9 9 9 8 7 4 2 3 4 5 5 5 5 6 8 7 6 5 5 2 1 1 -1 -1 -1 -1 -1 -0 -1
8 8 8 8 8 8 8 8 8 8 8 7 8 8 7 9 8 8 7 8 6 4 5 3 3 5 4 5 6 5 5 4 3 3 4 3 3 3 1 -1 -1 -2 -2 -2 0
4 4 3 2 4 4 3 3 1 -2 -2 2 4 6 8 8 7 7 1 2 4 7 6 3 3 3 4 5 5 5 5 2 1 -0 2 4 3 3 2 3 -0 -1 -1 0 1
3 1 -1 -3 -3 -3 -4 -4 -3 -2 2 3 5 6 7 6 7 4 6 6 6 5 7 6 1 4 4 5 4 6 4 3 3 3 4 4 2 5 4 4 3 2 1 1 4
0 -3 -5 -7 -8 -7 -6 -4 -0 3 3 3 3 5 7 7 6 6 6 6 6 5 4 4 3 3 4 4 4 5 4 4 4 3 3 3 3 5 4 5 4 4 3 2 3
-3 -8 -10 -9 -7 -7 -4 -0 5 4 1 1 3 5 6 5 5 5 6 6 5 3 2 1 1 1 2 3 4 3 3 2 2 2 2 4 4 3 4 4 5 5 5 5 4
-6 -11 -11 -10 -7 -4 4 4 4 3 1 3 4 6 5 5 5 5 5 4 0 -2 -2 -2 0 0 3 2 1 2 3 2 1 2 3 2 5 5 2 4 4 3 4 5 5
-7 -12 -12 -10 -6 2 4 4 2 1 3 3 6 6 6 6 4 1 -0 -1 -2 -2 -1 1 1 1 1 2 1 1 1 2 -1 -1 2 4 6 3 2 2 2 2 1 4 4
-11 -12 -10 -7 -0 5 4 1 1 3 1 4 6 4 5 3 1 1 0 0 -1 -2 -1 -1 0 0 -0 2 2 2 2 1 -0 1 2 3 4 1 -0 2 3 3 4 5 5
-12 -12 -8 -3 5 2 1 1 2 2 2 2 1 3 2 2 2 0 1 1 1 -3 -3 -1 2 2 1 2 2 2 3 1 1 -1 -2 2 2 -1 -1 0 0 1 2 4 4
-12 -10 -7 -0 1 2 1 2 1 2 2 3 1 2 1 -6 -3 -6 -7 -4 -0 -5 -1 -1 -0 -0 -1 2 1 1 1 3 1 -1 3 3 2 -0 -2 -1 -0 -1 0 3 3
-10 -9 -6 -0 2 2 1 2 2 1 2 2 -6 -5 -6 -5 -5 -6 -6 -3 -4 -1 -2 -4 -1 -4 -5 -5 -4 -0 2 1 1 -0 1 -1 -2 -4 -4 -3 -1 -1 -2 2 3
-9 -7 -3 -1 1 -1 1 2 1 2 2 0 -7 -6 -4 -4 -4 -5 -7 -6 -7 -5 -4 -3 -5 -8 -8 -7 -4 -1 1 -1 -3 -7 -5 -3 -2 -3 -7 -7 -3 -1 -1 -1 1
-8 -5 -3 -3 -0 -0 1 1 1 1 -2 -4 -6 -6 -3 -4 -4 -4 -5 -6 -4 -3 -5 -6 -8 -9 -7 -7 -7 -3 -6 -6 -7 -6 -3 -5 -4 -5 -5 -5 -5 -5 -2 -1 -0
-6 -5 -3 -2 0 -0 1 0 0 1 -4 -6 -5 -6 -5 -3 -4 -7 -7 -5 -4 -4 -6 -6 -7 -6 -6 -6 -8 -6 -7 -7 -7 -5 -4 -5 1 -2 -7 -8 -6 -6 -6 -4 -2
-4 -4 -2 -1 -1 -1 -0 -0 -0 -3 -7 -3 -5 -4 -4 -4 -3 -5 -8 -7 -5 -4 -4 -4 -7 -8 -7 -9 -9 -8 -7 -8 -3 -3 -2 -6 -3 -4 -7 -2 -1 -1 1 2 2
-2 -3 -2 -1 -1 -2 -1 -0 -2 -3 -4 -1 -3 -2 -2 -2 -4 -9 -9 -9 -8 -6 -6 -8 -10 -11 -9 -9 -9 -8 -7 -5 -5 -3 -4 -6 -7 -6 -4 -3 -3 -3 -4 -0 0
-2 -2 -2 0 -1 -2 -2 -3 -5 -5 -2 -2 -1 -2 -2 -3 -7 -7 -8 -7 -10 -8 -6 -6 -8 -9 -8 -7 -6 -7 -6 -5 -6 -5 -7 -8 -8 -12 -5 -6 -4 -4 -4 -4 -2
-4 -2 -0 -0 -1 -2 -3 -4 -4 -4 -2 -1 -3 -2 -3 -7 -5 -7 -8 -8 -8 -7 -5 -6 -5 -8 -8 -8 -9 -9 -2 -6 -3 -4 -2 -4 -6 -9 -4 -8 -6 -5 -5 -5 -3
-5 -1 0 -1 -2 -2 -3 -3 -3 -2 -2 -2 -1 -3 -1 -3 -5 -8 -7 -9 -8 -5 -7 -6 -4 -8 -7 -8 -8 -9 -7 -3 -4 -2 -2 -5 -5 -7 -1 -8 -6 -6 -5 -5 -2
-2 -2 -1 -1 -3 -3 -4 -4 -3 -3 -2 -2 -2 -1 -1 -2 -6 -6 -6 -8 -9 -4 -6 -6 -6 -6 -8 -7 -7 -6 -3 -4 -6 -3 -1 -2 -10 -3 -2 -5 -5 -6 -5 -5 -3
-1 -3 -2 -3 -3 -3 -3 -3 -3 -2 -2 -2 -2 -2 -2 -3 -3 -5 -4 -6 -8 -5 -5 -5 -6 -4 -5 -8 -9 -6 -7 -8 -6 -8 -5 -4 -7 -15 -10 -6 -5 -5 -6 -4 -4
-0 -0 -1 -2 -3 -5 -3 -3 -3 -2 -2 -2 -1 -3 -3 -2 -1 -4 -5 -7 -8 -5 -5 -5 -6 -6 -7 -7 -7 -7 -4 -8 -8 -7 -4 -3 -7 -11 -12 -8 -5 -6 -5 -4 -5
-1 -2 -2 -2 -2 -2 -3 -4 -3 -4 -2 -2 -2 -3 -1 -1 -3 -1 -4 -7 -5 -5 -6 -4 -5 -6 -5 -8 -8 -8 -9 -5 -5 -3 -5 -6 -8 -10 -11 -9 -5 -5 -4 -4 -5
-1 -2 -2 -5 -2 -2 -2 -7 -2 -2 -3 -2 -2 -2 -2 -1 -2 -2 -3 -4 -5 -6 -3 -1 -1 -5 -6 -8 -9 -7 -8 -8 -6 -5 -4 -8 -8 -9 -9 -8 -4 -4 -3 -4 -6
-1 -2 -1 -1 -3 -3 -2 -2 -2 -3 -4 -2 -1 -2 -2 -1 -3 -1 -1 -2 -3 -6 -3 -2 -1 -3 -3 -4 -5 -3 -4 -5 -6 -6 -5 -6 -5 -8 -6 -3 -4 -5 -5 -4 -5
0 -0 -1 -2 -1 -2 -3 -3 -3 -4 -4 -4 -3 -2 -1 -2 -3 -3 -3 -3 -1 -3 -4 -2 -2 -2 -2 -5 -5 -4 -7 -8 -6 -6 -5 -3 -5 -4 -4 -5 -5 -6 -6 -6 -6

GFSSW_850_dewp_159.txt.gz
Dewpoint
4 4 3 1 -2 -6 -8 -7 -5 -5 -5 -4 -2 -2 -0 6 6 7 8 9 8 7 5 6 6 6 5 5 4 4 4 5 4 3 1 -1 -1 -1 -0 0 1 1 -1 -2 -2
4 3 2 -0 -6 -11 -10 -9 -9 -7 -4 5 6 7 1 6 8 7 7 4 6 8 6 7 5 5 4 3 4 4 4 3 1 0 1 0 1 2 1 -1 -1 0 0 -0 -1
3 2 -1 -8 -10 -11 -10 -7 -0 -2 5 6 6 3 5 6 7 8 6 6 8 6 6 7 4 4 3 3 4 4 5 2 1 0 1 1 1 2 2 3 1 -1 1 1 1
3 0 -6 -10 -11 -10 -8 -2 6 5 5 5 2 3 5 7 5 6 7 6 6 6 5 6 4 3 4 4 4 5 2 1 1 1 2 2 1 1 2 1 1 1 1 0 1
2 -1 -6 -12 -11 -6 -0 5 4 5 5 2 2 5 6 5 5 5 6 5 5 4 5 4 3 3 4 3 2 2 1 1 1 -0 -0 -1 -0 -0 -0 -0 0 1 1 1 -0
2 -1 -7 -12 -6 -2 4 4 4 2 1 3 3 5 6 3 5 5 5 5 4 3 3 3 1 1 1 0 0 -0 0 -0 -1 -3 -4 -4 -2 0 -1 -3 -1 1 0 2 2
1 -3 -9 -9 -5 -3 -1 -0 -0 1 3 5 6 5 5 4 4 4 2 1 1 2 -0 -0 0 -0 1 0 0 0 0 -3 -5 -6 -5 -3 -2 -3 -5 -2 1 2 2 2 2
0 -4 -8 -7 -4 -4 -2 -1 -0 -0 2 4 5 6 5 5 1 0 0 -0 0 -0 -0 -0 0 0 0 -1 -1 -2 -2 -3 -8 -7 -6 -5 2 -4 -5 -4 -2 -1 -1 2 2
0 -5 -6 -6 -5 -5 -3 0 -0 0 3 4 5 6 3 2 1 1 -0 -1 -1 -1 -0 -1 -0 -1 -2 -1 -1 -2 -3 -5 -6 -8 -6 -5 -1 -6 -7 -8 -7 -4 -4 -3 -1
1 -4 -6 -6 -5 -6 -4 0 -1 1 1 1 3 1 -0 -1 -1 -1 0 -1 -3 -2 -3 -1 -1 -1 -2 -3 -4 -4 -4 -5 -4 -7 -8 -5 -5 -10 -13 -12 -9 -7 -6 -5 -3
2 -4 -6 -5 -4 -6 -5 2 2 2 -1 -1 -2 -3 -4 -3 -5 -3 -3 -1 -2 -3 -5 -4 -4 -5 -7 -6 -7 -7 -6 -5 -9 -9 -8 -10 -12 -13 -12 -9 -8 -7 -5 -4 -1
2 -3 -5 -4 -3 -5 -5 -1 -2 -2 1 -2 -4 -3 -2 -3 -5 -6 -3 -4 -6 -7 -7 -6 -7 -8 -8 -8 -7 -9 -9 -9 -10 -12 -13 -14 -13 -15 -11 -7 -7 -5 -2 1 3
2 -2 -4 -3 -3 -3 -3 -1 -1 0 2 -3 -5 -5 -4 -3 -5 -6 -6 -7 -7 -8 -9 -8 -9 -10 -8 -9 -9 -10 -10 -10 -10 -11 -14 -16 -15 -15 -15 -11 -7 -6 -4 -2 -1
1 -1 -4 -2 2 -2 -0 -1 -0 0 5 -3 -6 -5 -4 -3 -4 -5 -7 -7 -7 -7 -8 -9 -10 -9 -9 -9 -10 -8 -12 -10 -10 -10 -10 -15 -10 -14 -16 -14 -8 -7 -7 -5 -4
1 0 -3 -2 -2 1 -2 -2 -1 1 10 -6 -6 -5 -5 -5 -6 -6 -6 -7 -7 -8 -8 -9 -9 -9 -8 -9 -10 -9 -11 -10 -10 -10 -11 -13 -11 -13 -15 -14 -11 -9 -9 -9 -7
1 0 -3 -1 -2 -2 -3 -2 0 5 8 -4 -5 -5 -5 -6 -6 -5 -6 -7 -8 -8 -8 -8 -9 -8 -9 -11 -11 -11 -10 -11 -11 -12 -4 -8 -10 -11 -17 -9 -10 -11 -11 -11 -9
1 0 -2 -2 -0 -2 -3 2 5 9 -5 -2 -3 -4 -4 -5 -6 -9 -9 -8 -7 -5 -6 -9 -10 -11 -12 -9 -11 -9 -9 -2 -4 -3 -1 -13 -11 -14 -18 -11 -11 -11 -13 -13 -9
2 -0 -1 -2 -3 -4 -1 2 7 -4 -4 -3 -3 -4 -3 -6 -7 -7 -7 -6 -8 -9 -6 -4 -7 -11 -10 -9 -9 -9 -8 -4 -3 -4 -8 -13 -11 -15 -14 -10 -11 -12 -17 -13 -10
2 1 -0 -2 -3 -5 1 6 3 -3 -3 -2 -5 -3 -5 -6 -6 -5 -6 -7 -8 -8 -4 -3 -5 -10 -10 -11 -10 -8 -6 -6 -4 -8 -6 -9 -14 -17 -20 -16 -19 -13 -16 -14 -12
2 1 2 -2 -3 -2 3 3 -4 -4 -2 -2 -3 -5 -2 -5 -4 -1 -4 -8 -8 -9 -7 -4 -2 -9 -9 -9 -9 -8 -10 -5 -1 1 -4 -11 -14 -17 -20 -20 -17 -14 -16 -14 -11
1 2 1 -2 -3 1 5 1 -4 -4 -2 -1 -3 -3 -4 -2 -1 -2 -1 -6 -9 -7 -6 -2 -3 -7 -8 -7 -7 -6 -4 -5 -3 -3 -3 -5 -12 -20 -16 -17 -15 -15 -14 -14 -9
1 5 1 -2 2 1 3 -3 -3 -4 -3 -2 -2 -2 -3 -4 -0 -2 -3 -4 -9 -8 -5 -5 -0 -1 -5 -9 -9 -8 -3 -2 -2 -3 -2 -5 -8 -15 -16 -17 -17 -14 -12 -12 -9
3 2 0 -4 4 4 0 -2 -4 -3 -3 -2 -2 -3 -4 -3 -0 -2 -3 -6 -6 -6 -4 -4 -2 -1 -6 -6 -7 -5 -7 -4 -3 -4 -3 -4 -8 -15 -16 -16 -17 -12 -10 -9 -9
2 5 1 -1 -0 -0 1 0 -2 -4 -4 -4 -3 -3 -3 -2 -4 -2 -3 -5 -6 -6 -6 -4 -1 -2 -2 -3 -2 -1 -2 -6 -4 -3 -6 -7 -8 -12 -15 -15 -15 -11 -11 -10 -11
1 1 1 4 2 -0 -1 0 -1 -1 -4 -3 -2 -2 -2 -1 -4 -4 -5 -6 -7 -6 -5 -1 -0 -3 -4 -2 -2 -3 -2 -2 -1 -2 -1 -5 -7 -9 -10 -12 -14 -11 -11 -12 -13
1 1 -1 0 -3 -0 -1 0 -0 -1 -2 -2 -2 -5 -5 -1 -4 -4 -5 -4 -1 -4 -1 0 -1 -4 -4 -7 -8 -5 -7 -6 -3 -5 -4 -5 -5 -8 -11 -13 -12 -10 -12 -12 -12
2 1 0 1 -0 -0 -1 -0 -0 -2 -3 -5 -6 -4 -4 -6 -6 -5 -5 -5 -5 -1 -1 -1 -3 -2 -2 -8 -7 -4 -10 -10 -10 -8 -5 -3 -4 -10 -12 -12 -11 -9 -10 -11 -12